Weather History for Yankton, SD

Change the Weather History Date:

Thursday, March 21, 2013

  Actual Average Record
Temperature  
Mean Temperature 22 °F -  
Max Temperature 33 °F 48 °F 74 °F (1990)
Min Temperature 12 °F 25 °F -1 °F (1951)
Degree Days  
Heating Degree Days 42    
Moisture  
Dew Point 11 °F    
Average Humidity 63    
Maximum Humidity 86    
Minimum Humidity 30    
Precipitation  
Precipitation 0.00 in - - ()
Sea Level Pressure  
Sea Level Pressure 30.00 in    
Wind  
Wind Speed 9 mph (East)    
Max Wind Speed 14 mph    
Max Gust Speed 17 mph    
Visibility 10 miles    
Events      
Averages and records for this station are not official NWS values.
T = Trace of Precipitation, MM = Missing Value Source: NWS Daily Summary

Daily Weather History Graph

Daily Weather History Graph

Search for Another Location

Airport:

Trip Planner

Search our weather history database for the weather conditions in past years. The results will help you decide how hot, cold, wet, or windy it might be!

Date:

Astronomy

Mar. 21, 2013 Rise Set
Actual Time 7:30 AM CDT 7:43 PM CDT
Civil Twilight 7:02 AM CDT 8:11 PM CDT
Nautical Twilight 6:29 AM CDT 8:44 PM CDT
Astronomical Twilight 5:55 AM CDT 9:18 PM CDT
Moon 2:07 PM CDT (3/21) 4:00 AM CDT (3/21)
Length of Visible Light 13h 09m
Length of Day
12h 12m
Waxing Gibbous, 69% of the Moon is Illuminated
Mar 21
Waxing Gibbous
Mar 27
Full
Apr 2
Last Quarter
Apr 10
New
Apr 18
First Quarter

Hourly Weather History & Observations

Time (CDT) Temp. Windchill Dew Point Humidity Pressure Visibility Wind Dir Wind Speed Gust Speed Precip Events Conditions
12:15 AM 17.6 °F 7.3 °F 10.4 °F 73% 30.11 in 10.0 mi ENE 8.1 mph - N/A   Clear
12:35 AM 15.8 °F 4.2 °F 10.4 °F 79% 30.09 in 10.0 mi NE 9.2 mph - N/A   Clear
1:15 AM 15.8 °F 6.1 °F 10.4 °F 79% 30.08 in 10.0 mi ENE 6.9 mph - N/A   Clear
1:35 AM 15.8 °F 6.1 °F 10.4 °F 79% 30.08 in 10.0 mi ENE 6.9 mph - N/A   Clear
1:55 AM 15.8 °F 7.2 °F 8.6 °F 73% 30.08 in 10.0 mi East 5.8 mph - N/A   Clear
2:15 AM 15.8 °F 5.1 °F 8.6 °F 73% 30.08 in 10.0 mi ENE 8.1 mph - N/A   Clear
2:35 AM 14.0 °F 5.1 °F 8.6 °F 79% 30.08 in 10.0 mi ENE 5.8 mph - N/A   Clear
2:55 AM 15.8 °F 6.1 °F 10.4 °F 79% 30.08 in 10.0 mi ENE 6.9 mph - N/A   Clear
3:15 AM 15.8 °F 6.1 °F 8.6 °F 73% 30.08 in 10.0 mi ENE 6.9 mph - N/A   Clear
3:35 AM 15.8 °F 6.1 °F 8.6 °F 73% 30.07 in 10.0 mi East 6.9 mph - N/A   Clear
3:55 AM 15.8 °F 6.1 °F 8.6 °F 73% 30.06 in 10.0 mi East 6.9 mph - N/A   Clear
4:15 AM 14.0 °F 3.9 °F 8.6 °F 79% 30.06 in 10.0 mi ENE 6.9 mph - N/A   Clear
4:35 AM 14.0 °F 5.1 °F 8.6 °F 79% 30.05 in 10.0 mi East 5.8 mph - N/A   Clear
4:55 AM 14.0 °F 5.1 °F 8.6 °F 79% 30.04 in 10.0 mi ENE 5.8 mph - N/A   Clear
5:15 AM 12.2 °F 2.9 °F 8.6 °F 85% 30.04 in 10.0 mi ENE 5.8 mph - N/A   Clear
5:35 AM 12.2 °F 1.7 °F 8.6 °F 85% 30.04 in 10.0 mi East 6.9 mph - N/A   Clear
5:55 AM 12.2 °F 0.7 °F 8.6 °F 85% 30.03 in 10.0 mi East 8.1 mph - N/A   Clear
6:15 AM 12.2 °F 1.7 °F 8.6 °F 85% 30.03 in 10.0 mi East 6.9 mph - N/A   Clear
6:35 AM 12.2 °F -0.2 °F 8.6 °F 85% 30.02 in 10.0 mi East 9.2 mph - N/A   Clear
6:55 AM 12.2 °F -1.0 °F 8.6 °F 85% 30.02 in 10.0 mi East 10.4 mph - N/A   Clear
7:15 AM 12.2 °F -1.8 °F 8.6 °F 85% 30.02 in 10.0 mi East 11.5 mph - N/A   Clear
7:35 AM 12.2 °F -2.5 °F 8.6 °F 85% 30.02 in 10.0 mi East 12.7 mph - N/A   Clear
7:55 AM 12.2 °F -0.2 °F 8.6 °F 85% 30.03 in 10.0 mi East 9.2 mph - N/A   Clear
8:15 AM 14.0 °F 0.5 °F 10.4 °F 86% 30.03 in 10.0 mi East 11.5 mph - N/A   Clear
8:35 AM 14.0 °F 2.0 °F 8.6 °F 79% 30.03 in 10.0 mi East 9.2 mph - N/A   Clear
8:55 AM 15.8 °F 2.1 °F 8.6 °F 73% 30.03 in 10.0 mi East 12.7 mph - N/A   Clear
9:15 AM 15.8 °F 2.7 °F 8.6 °F 73% 30.03 in 10.0 mi East 11.5 mph - N/A   Clear
9:35 AM 15.8 °F 3.4 °F 10.4 °F 79% 30.03 in 10.0 mi East 10.4 mph - N/A   Clear
9:55 AM 17.6 °F 4.3 °F 10.4 °F 73% 30.02 in 10.0 mi East 12.7 mph - N/A   Clear
10:15 AM 17.6 °F 6.4 °F 10.4 °F 73% 30.03 in 10.0 mi East 9.2 mph - N/A   Clear
10:35 AM 19.4 °F 9.5 °F 10.4 °F 68% 30.02 in 10.0 mi ESE 8.1 mph - N/A   Clear
10:55 AM 19.4 °F 7.2 °F 10.4 °F 68% 30.01 in 10.0 mi East 11.5 mph - N/A   Clear
11:35 AM 23.0 °F 14.7 °F 8.6 °F 54% 30.01 in 10.0 mi ESE 6.9 mph - N/A   Mostly Cloudy
11:55 AM 24.8 °F 14.6 °F 10.4 °F 54% 30.00 in 10.0 mi ESE 10.4 mph - N/A   Mostly Cloudy
12:15 PM 26.6 °F 16.8 °F 10.4 °F 51% 29.99 in 10.0 mi ESE 10.4 mph - N/A   Mostly Cloudy
12:35 PM 26.6 °F 17.5 °F 10.4 °F 51% 29.99 in 10.0 mi ESE 9.2 mph - N/A   Overcast
12:55 PM 28.4 °F 19.7 °F 12.2 °F 51% 29.98 in 10.0 mi SE 9.2 mph - N/A   Overcast
1:15 PM 28.4 °F 20.4 °F 10.4 °F 47% 29.97 in 10.0 mi SSE 8.1 mph - N/A   Overcast
1:35 PM 28.4 °F 19.7 °F 12.2 °F 51% 29.97 in 10.0 mi SSE 9.2 mph - N/A   Overcast
1:55 PM 30.2 °F 21.9 °F 12.2 °F 47% 29.96 in 10.0 mi East 9.2 mph - N/A   Overcast
2:15 PM 30.2 °F 21.9 °F 12.2 °F 47% 29.95 in 10.0 mi SE 9.2 mph - N/A   Overcast
2:35 PM 30.2 °F 22.6 °F 12.2 °F 47% 29.94 in 10.0 mi ESE 8.1 mph - N/A   Overcast
3:15 PM 32.0 °F 23.0 °F 10.4 °F 41% 29.93 in 10.0 mi ESE 11.5 mph - N/A   Overcast
3:35 PM 32.0 °F 24.2 °F 10.4 °F 41% 29.93 in 10.0 mi East 9.2 mph - N/A   Overcast
3:55 PM 32.0 °F 23.6 °F 10.4 °F 41% 29.92 in 10.0 mi East 10.4 mph - N/A   Overcast
4:15 PM 33.8 °F 25.3 °F 8.6 °F 35% 29.92 in 10.0 mi East 11.5 mph 16.1 mph N/A   Overcast
4:35 PM 33.8 °F 25.3 °F 8.6 °F 35% 29.92 in 10.0 mi East 11.5 mph - N/A   Overcast
4:55 PM 32.0 °F 22.1 °F 5.0 °F 32% 29.92 in 10.0 mi East 13.8 mph 17.3 mph N/A   Overcast
5:15 PM 32.0 °F 24.2 °F 3.2 °F 30% 29.92 in 10.0 mi ESE 9.2 mph - N/A   Overcast
5:35 PM 32.0 °F 23.6 °F 8.6 °F 38% 29.92 in 10.0 mi SE 10.4 mph - N/A   Overcast
5:55 PM 32.0 °F 23.6 °F 10.4 °F 41% 29.92 in 10.0 mi ESE 10.4 mph - N/A   Overcast
6:15 PM 32.0 °F 24.8 °F 10.4 °F 41% 29.93 in 10.0 mi ESE 8.1 mph - N/A   Overcast
6:35 PM 32.0 °F 24.2 °F 8.6 °F 38% 29.93 in 10.0 mi SE 9.2 mph - N/A   Overcast
6:55 PM 32.0 °F 26.4 °F 8.6 °F 38% 29.93 in 10.0 mi ESE 5.8 mph - N/A   Overcast
7:15 PM 32.0 °F 25.6 °F 8.6 °F 38% 29.94 in 10.0 mi ESE 6.9 mph - N/A   Overcast
7:35 PM 30.2 °F 23.4 °F 8.6 °F 40% 29.95 in 10.0 mi SE 6.9 mph - N/A   Overcast
7:55 PM 30.2 °F 23.4 °F 8.6 °F 40% 29.95 in 10.0 mi SE 6.9 mph - N/A   Overcast
8:15 PM 30.2 °F 21.9 °F 12.2 °F 47% 29.96 in 10.0 mi ESE 9.2 mph - N/A   Overcast
8:35 PM 30.2 °F 22.6 °F 15.8 °F 55% 29.96 in 10.0 mi ESE 8.1 mph - N/A   Overcast
8:55 PM 30.2 °F 23.4 °F 15.8 °F 55% 29.97 in 10.0 mi East 6.9 mph - N/A   Overcast
9:15 PM 30.2 °F 20.8 °F 17.6 °F 60% 29.97 in 10.0 mi East 11.5 mph - N/A   Overcast
9:35 PM 28.4 °F 19.1 °F 17.6 °F 64% 29.98 in 10.0 mi East 10.4 mph - N/A   Overcast
9:55 PM 28.4 °F 19.7 °F 17.6 °F 64% 29.99 in 10.0 mi East 9.2 mph - N/A   Overcast
10:15 PM 28.4 °F 19.7 °F 17.6 °F 64% 29.99 in 10.0 mi East 9.2 mph - N/A   Overcast
10:35 PM 28.4 °F 20.4 °F 17.6 °F 64% 30.00 in 10.0 mi East 8.1 mph - N/A   Overcast
10:55 PM 26.6 °F 17.5 °F 19.4 °F 74% 30.00 in 10.0 mi East 9.2 mph - N/A   Overcast
11:15 PM 26.6 °F 16.8 °F 19.4 °F 74% 30.00 in 10.0 mi East 10.4 mph 16.1 mph N/A   Overcast
11:35 PM 26.6 °F 16.2 °F 19.4 °F 74% 30.00 in 10.0 mi East 11.5 mph - N/A   Overcast
11:55 PM 26.6 °F 17.5 °F 19.4 °F 74% 30.01 in 10.0 mi East 9.2 mph - N/A   Mostly Cloudy